[[{"header":{"parameterUnit":"m.s-1","parameterCategory":1,"la1":30.2991,"la2":30.254,"lo1":-89.0895,"lo2":-89.0444,"dy":0.0017,"dx":0.0017,"nx":28,"ny":28,"refTime":"2024-04-16T21:00:00:Z","depth":0,"parameterNumber":2,"parameterNumberName":"U-component_of_WINDS"},"data":[0,0,0,0,0,0,0,0,0,0,0,0,0,0,0,0,0,0,0,0,0,0,0,0,0,0,0,0,0,0,0,0,0,0,0,0,0,0,0,0,0,0,0,0,0,0,0,0,0,0,0,0,0,0,0,0,0,0,-0.8123,-0.8124,0,-0.8166,-0.8167,-0.8167,-0.8193,-0.8193,-0.8193,-0.8193,-0.824,-0.8241,-0.8242,0,0,0,0,0,0,0,0,0,0,0,0,0,-0.8066,-0.8067,-0.8123,-0.8124,-0.8124,-0.8166,-0.8167,-0.8167,-0.8193,-0.8193,-0.8193,-0.8193,-0.8239,-0.8241,-0.8242,0,0,0,0,0,0,0,0,0,0,0,0,0,-0.8098,-0.8067,-0.8123,-0.8142,-0.8144,-0.8166,-0.8167,-0.8168,-0.8193,-0.8193,-0.8193,-0.8194,-0.8239,-0.8241,-0.8242,-0.8249,0,0,-0.8247,-0.8248,0,0,0,0,0,0,0,0,-0.8096,-0.81,-0.8139,-0.8141,-0.8143,-0.8174,-0.8164,-0.8195,-0.8193,-0.8175,-0.8193,-0.8194,-0.8218,-0.8221,-0.8229,-0.8251,-0.8253,-0.8248,-0.8249,-0.8249,-0.825,0,0,0,0,0,0,0,-0.8094,-0.8098,-0.814,-0.8139,-0.8142,-0.8149,-0.8154,-0.817,-0.8195,-0.8176,-0.8178,-0.8183,-0.8219,-0.8227,-0.823,-0.8254,-0.8247,-0.8249,-0.825,-0.8251,-0.8285,-0.8285,0,0,0,0,0,0,-0.8088,-0.8096,-0.8139,-0.8142,-0.8119,-0.815,-0.8155,-0.8164,-0.8195,-0.82,-0.8183,-0.8184,-0.8225,-0.8228,-0.8232,-0.8243,-0.8249,-0.8251,-0.8252,-0.8286,-0.8285,-0.8285,0,0,0,0,0,0,-0.8087,-0.8092,-0.8137,-0.8119,-0.8126,-0.8151,-0.8161,-0.8165,-0.8173,-0.82,-0.8204,-0.8186,-0.8225,-0.823,-0.8245,-0.8245,-0.8252,-0.8253,-0.8286,-0.8285,-0.8285,-0.8264,0,0,0,0,0,0,-0.8085,-0.8091,-0.8093,-0.8119,-0.8127,-0.8148,-0.8161,-0.8166,-0.8176,-0.8178,-0.8204,-0.8209,-0.8225,-0.8242,-0.8247,-0.8247,-0.8254,-0.8286,-0.8286,-0.8285,-0.8265,-0.8263,-0.8262,0,0,0,0,0,-0.8083,-0.8086,-0.8093,-0.8098,-0.813,-0.8148,-0.8152,-0.8171,-0.8176,-0.8179,-0.8196,-0.8208,-0.8244,-0.8244,-0.8249,-0.825,-0.8286,-0.8286,-0.8285,-0.8266,-0.8264,-0.8262,0,0,0,0,0,0,-0.806,-0.809,-0.8098,-0.8109,-0.8126,-0.8152,-0.8157,-0.8168,-0.8184,-0.8185,-0.8208,-0.8214,-0.8227,-0.824,-0.8239,-0.8259,-0.8267,-0.8267,-0.825,-0.8248,-0.8247,-0.8243,-0.8256,0,0,0,0,0,-0.8056,-0.8068,-0.8093,-0.8101,-0.8109,-0.8131,-0.814,-0.8153,-0.8171,-0.8178,-0.8196,-0.8214,-0.823,-0.824,-0.8256,-0.8267,-0.8274,-0.8271,-0.8269,-0.8268,-0.8268,-0.8276,-0.8275,-0.8285,-0.8285,-0.8285,0,0,-0.8048,-0.8066,-0.8072,-0.8097,-0.8111,-0.8123,-0.8137,-0.8149,-0.8159,-0.818,-0.8196,-0.821,-0.8231,-0.8245,-0.8252,-0.8256,-0.8267,-0.8268,-0.8266,-0.8268,-0.8276,-0.8275,-0.8274,-0.8284,-0.8285,-0.8285,0,0,-0.8041,-0.8055,-0.8063,-0.8077,-0.8098,-0.8113,-0.8115,-0.814,-0.815,-0.8166,-0.8182,-0.8195,-0.8221,-0.8236,-0.8247,-0.8246,-0.8258,-0.825,-0.8242,-0.825,-0.8249,-0.8248,-0.8249,-0.8248,-0.8251,-0.8251,-0.8251,0,-0.8029,-0.8047,-0.8066,-0.8077,-0.8088,-0.8108,-0.8117,-0.813,-0.8155,-0.8163,-0.8167,-0.8201,-0.8217,-0.8235,-0.8234,-0.8242,-0.8246,-0.8247,-0.8247,-0.8247,-0.8247,-0.8247,-0.8247,-0.825,-0.825,-0.825,-0.825,0,-0.8031,-0.8044,-0.8048,-0.8072,-0.8083,-0.8093,-0.8115,-0.8124,-0.8136,-0.8151,-0.8167,-0.8187,-0.8207,-0.8213,-0.8225,-0.8232,-0.8234,-0.8243,-0.8251,-0.8245,-0.8245,-0.8246,-0.8248,-0.8248,-0.8249,-0.8249,0,0,-0.801,-0.8044,-0.8045,-0.8057,-0.8082,-0.8093,-0.8104,-0.8124,-0.8131,-0.8149,-0.816,-0.8182,-0.819,-0.8202,-0.8216,-0.8223,-0.8221,-0.8231,-0.8232,-0.8229,-0.8232,-0.8225,-0.8225,-0.823,-0.823,-0.823,-0.823,0,-0.8006,-0.8027,-0.8044,-0.8059,-0.8071,-0.8091,-0.8101,-0.8118,-0.8132,-0.8146,-0.8162,-0.8178,-0.8187,-0.8195,-0.8202,-0.822,-0.8222,-0.822,-0.8241,-0.8241,-0.8235,-0.8226,-0.8219,-0.8218,-0.8231,-0.8231,-0.8231,0,-0.8004,-0.802,-0.8036,-0.806,-0.8066,-0.8075,-0.8094,-0.8107,-0.8127,-0.8137,-0.8152,-0.8166,-0.818,-0.8187,-0.8208,-0.8206,-0.8215,-0.8226,-0.8226,-0.8229,-0.8235,-0.8228,-0.8218,-0.8218,-0.8231,-0.8231,-0.8231,0,-0.7987,-0.8013,-0.8026,-0.8035,-0.8064,-0.8069,-0.8082,-0.8102,-0.8113,-0.8131,-0.8138,-0.8157,-0.8168,-0.8183,-0.8203,-0.8206,-0.8222,-0.823,-0.8231,-0.8231,-0.8233,-0.8233,-0.8225,-0.8239,-0.8239,-0.8239,-0.8239,0,-0.7981,-0.799,-0.8018,-0.8026,-0.8037,-0.8058,-0.8069,-0.8083,-0.8101,-0.8113,-0.8131,-0.8142,-0.8167,-0.8182,-0.8198,-0.8213,-0.8217,-0.8227,-0.8231,-0.8225,-0.8224,-0.8232,-0.8232,-0.8239,-0.8239,-0.8239,-0.8239,0,-0.7964,-0.7983,-0.7999,-0.8025,-0.8032,-0.8038,-0.8061,-0.807,-0.8086,-0.8101,-0.8105,-0.813,-0.8148,-0.817,-0.8195,-0.8205,-0.8219,-0.8225,-0.8212,-0.8214,-0.8214,-0.8214,-0.8211,-0.8212,-0.8225,-0.8225,-0.8225,0,-0.7959,-0.7966,-0.7993,-0.8002,-0.8014,-0.8028,-0.8039,-0.806,-0.8071,-0.8095,-0.8101,-0.812,-0.8137,-0.8165,-0.8185,-0.8205,-0.8212,-0.8209,-0.8215,-0.8209,-0.8212,-0.8212,-0.8213,-0.8208,-0.8208,-0.8207,-0.8207,0,-0.7948,-0.7957,-0.7972,-0.799,-0.8002,-0.8018,-0.8034,-0.8041,-0.8066,-0.8077,-0.8095,-0.8108,-0.8134,-0.8153,-0.8175,-0.8189,-0.8203,-0.8205,-0.8207,-0.8201,-0.8193,-0.8198,-0.8208,-0.8205,-0.8206,-0.8206,-0.8206,-0.8206,-0.7937,-0.7945,-0.7965,-0.7981,-0.7995,-0.801,-0.802,-0.8037,-0.8052,-0.8074,-0.8086,-0.8104,-0.8125,-0.8156,-0.817,-0.8185,-0.819,-0.8192,-0.8192,-0.8193,-0.8191,-0.8191,-0.8189,-0.8189,-0.8189,-0.819,-0.819,0,-0.7927,-0.7941,-0.7956,-0.7978,-0.7991,-0.8002,-0.8021,-0.8031,-0.8046,-0.8065,-0.808,-0.8102,-0.812,-0.8143,-0.8164,-0.8171,-0.8178,-0.8176,-0.8176,-0.8179,-0.8185,-0.8182,-0.817,-0.817,-0.817,-0.817,-0.817,-0.817,-0.7924,-0.7937,-0.7949,-0.797,-0.7984,-0.8001,-0.8011,-0.8026,-0.804,-0.8063,-0.8079,-0.8093,-0.8113,-0.8136,-0.8154,-0.816,-0.8167,-0.8163,-0.8171,-0.8177,-0.8179,-0.818,-0.8177,-0.8164,-0.8164,-0.8164,-0.8164,-0.8164]},{"header":{"parameterUnit":"m.s-1","parameterCategory":1,"la1":30.2991,"la2":30.254,"lo1":-89.0895,"lo2":-89.0444,"dy":0.0017,"dx":0.0017,"nx":28,"ny":28,"refTime":"2024-04-16T21:00:00:Z","depth":0,"parameterNumber":3,"parameterNumberName":"V-component_of_WINDS"},"data":[0,0,0,0,0,0,0,0,0,0,0,0,0,0,0,0,0,0,0,0,0,0,0,0,0,0,0,0,0,0,0,0,0,0,0,0,0,0,0,0,0,0,0,0,0,0,0,0,0,0,0,0,0,0,0,0,0,0,3.445,3.445,0,3.4425,3.4425,3.4425,3.4445,3.4446,3.4446,3.4447,3.4416,3.4414,3.4413,0,0,0,0,0,0,0,0,0,0,0,0,0,3.451,3.4508,3.445,3.445,3.445,3.4425,3.4425,3.4425,3.4445,3.4446,3.4447,3.4448,3.4417,3.4415,3.4413,0,0,0,0,0,0,0,0,0,0,0,0,0,3.4484,3.4508,3.445,3.4457,3.4457,3.4425,3.4425,3.4425,3.4444,3.4446,3.4447,3.4448,3.4417,3.4415,3.4412,3.4371,0,0,3.4405,3.4404,0,0,0,0,0,0,0,0,3.4485,3.4482,3.4456,3.4456,3.4457,3.444,3.4435,3.4406,3.4444,3.4449,3.4447,3.4449,3.4422,3.442,3.4412,3.437,3.4369,3.4405,3.4403,3.4402,3.4401,0,0,0,0,0,0,0,3.4487,3.4483,3.444,3.4456,3.4456,3.4459,3.4457,3.4429,3.4428,3.4449,3.445,3.4447,3.4423,3.4414,3.4411,3.4368,3.4405,3.4403,3.4401,3.44,3.4291,3.4289,0,0,0,0,0,0,3.4489,3.4484,3.4441,3.4439,3.4475,3.4457,3.4455,3.4444,3.4429,3.4428,3.4446,3.4448,3.4418,3.4414,3.441,3.4361,3.4402,3.44,3.4398,3.4292,3.429,3.4289,0,0,0,0,0,0,3.449,3.4485,3.4442,3.4462,3.4457,3.4455,3.4442,3.4442,3.4434,3.4427,3.4426,3.4438,3.4419,3.4414,3.4381,3.436,3.4399,3.4397,3.4294,3.4291,3.4289,3.4262,0,0,0,0,0,0,3.4492,3.4485,3.4471,3.4462,3.4456,3.4415,3.4441,3.4441,3.443,3.4433,3.4419,3.4418,3.4419,3.4385,3.4379,3.4357,3.4395,3.4295,3.4293,3.429,3.4265,3.4259,3.4255,0,0,0,0,0,3.4494,3.4463,3.447,3.4465,3.4438,3.4414,3.441,3.4414,3.4429,3.4413,3.4409,3.4419,3.4364,3.4381,3.4375,3.4352,3.4297,3.4293,3.429,3.4267,3.426,3.4255,0,0,0,0,0,0,3.4468,3.4462,3.447,3.4435,3.4425,3.4417,3.4398,3.4406,3.439,3.4393,3.4396,3.4393,3.4359,3.4352,3.4372,3.4312,3.4332,3.4328,3.4317,3.4311,3.4306,3.4307,3.4393,0,0,0,0,0,3.4458,3.4441,3.4436,3.4406,3.44,3.44,3.4389,3.4393,3.4382,3.4377,3.437,3.4357,3.4337,3.4324,3.4305,3.4264,3.4261,3.4246,3.4241,3.4236,3.4232,3.4209,3.4202,3.4278,3.4278,3.4278,0,0,3.4438,3.4433,3.4421,3.44,3.4393,3.4373,3.4396,3.4374,3.4358,3.4373,3.4342,3.4337,3.4322,3.4286,3.4269,3.4279,3.421,3.4232,3.4229,3.4227,3.4205,3.4198,3.4192,3.4276,3.4276,3.4277,0,0,3.439,3.4385,3.436,3.4352,3.4341,3.4341,3.4335,3.4326,3.4323,3.4293,3.4303,3.4284,3.425,3.4239,3.4229,3.4178,3.4186,3.4172,3.4144,3.4122,3.4116,3.4111,3.4092,3.4085,3.4167,3.4167,3.4167,0,3.4366,3.4338,3.4345,3.4322,3.4312,3.4327,3.43,3.4292,3.4274,3.4266,3.4278,3.4235,3.4227,3.4188,3.4175,3.4167,3.4159,3.4173,3.4117,3.4112,3.4107,3.4089,3.4082,3.4166,3.4166,3.4166,3.4166,0,3.4308,3.4288,3.4268,3.4253,3.4241,3.4216,3.4218,3.4205,3.421,3.4208,3.4176,3.4167,3.4146,3.4137,3.4141,3.4098,3.4105,3.4117,3.4138,3.4098,3.4081,3.4074,3.4163,3.4164,3.4164,3.4165,0,0,3.4242,3.4232,3.4225,3.4218,3.4207,3.4191,3.4166,3.4148,3.4136,3.4124,3.4102,3.4073,3.4084,3.4073,3.4076,3.4057,3.4016,3.4071,3.407,3.406,3.3967,3.3958,3.395,3.4022,3.402,3.4019,3.3968,0,3.4194,3.4153,3.4159,3.4119,3.41,3.4114,3.4092,3.4082,3.408,3.4062,3.4059,3.4038,3.4055,3.4048,3.403,3.4025,3.3997,3.4029,3.4,3.3999,3.4002,3.3941,3.3931,3.3883,3.3962,3.3961,3.396,0,3.4132,3.4119,3.4078,3.407,3.4062,3.4043,3.4027,3.401,3.3999,3.3998,3.3986,3.3993,3.3966,3.3988,3.3951,3.3972,3.3961,3.3957,3.3955,3.3951,3.3976,3.3935,3.3868,3.3861,3.395,3.395,3.3951,0,3.4087,3.406,3.4032,3.4025,3.4016,3.4002,3.3997,3.3987,3.3975,3.3961,3.3953,3.3934,3.3924,3.3909,3.3909,3.3925,3.3871,3.3893,3.3868,3.3868,3.3856,3.3856,3.3785,3.385,3.385,3.385,3.385,0,3.4032,3.4006,3.4012,3.3994,3.3965,3.3971,3.3941,3.3938,3.3929,3.391,3.392,3.3901,3.3904,3.3884,3.3884,3.3853,3.3848,3.3846,3.3846,3.3844,3.3845,3.3836,3.3839,3.3848,3.3848,3.3849,3.3849,0,3.3977,3.398,3.395,3.3944,3.3942,3.3921,3.3914,3.3897,3.3896,3.3872,3.3866,3.3864,3.3842,3.3841,3.3815,3.3815,3.3777,3.3781,3.3781,3.3781,3.3756,3.3758,3.3676,3.3665,3.3738,3.3737,3.3737,0,3.3942,3.3923,3.3915,3.3904,3.3898,3.388,3.3869,3.3874,3.3862,3.3847,3.3831,3.3811,3.3794,3.3758,3.3753,3.3733,3.3736,3.3709,3.3733,3.3732,3.3734,3.3735,3.3733,3.3703,3.3703,3.3702,3.3701,0,3.3878,3.3881,3.3866,3.3851,3.3838,3.3825,3.3814,3.3804,3.3808,3.3793,3.3772,3.3759,3.3734,3.3712,3.3693,3.3686,3.3693,3.3694,3.3687,3.3685,3.3686,3.3684,3.3767,3.3696,3.3696,3.3697,3.3697,3.3697,3.3831,3.3815,3.3807,3.3789,3.3782,3.3771,3.3755,3.3753,3.3736,3.3716,3.372,3.3696,3.3684,3.3659,3.365,3.363,3.3639,3.363,3.3627,3.3624,3.3621,3.369,3.3627,3.3627,3.3627,3.3627,3.3627,0,3.3768,3.3764,3.3748,3.3733,3.3718,3.373,3.3718,3.3704,3.3684,3.3673,3.3657,3.3632,3.3612,3.3605,3.3585,3.357,3.3573,3.3564,3.3565,3.3563,3.3614,3.3622,3.3562,3.3562,3.3562,3.3562,3.3562,3.3563,3.3733,3.3705,3.3707,3.3675,3.3671,3.3648,3.3641,3.363,3.3622,3.3594,3.3578,3.3575,3.3565,3.3545,3.3526,3.3524,3.3516,3.3506,3.3505,3.3553,3.356,3.3566,3.3573,3.3504,3.3504,3.3456,3.3455,3.3455]}]]